When you browse on this site, cookies collect data to enhance your experience and personalize the content and advertising you see.
Visit our Privacy Policy to learn more. By continuing to use the site, you agree to this use of cookies and data.
  • In Hungary
  • List of Countries
  • For 7 days
  • Water Temperature
  • Satellite Maps
  • Weather Map
  • News
  • Weather Widgets
  • user-avatar
    Login

    Hourly Weather Shkoder

    Today, 10 December, Monday

    Time Temperature Precipitation Wind Pressure Humidity
    00:00 +8°C° 1.1 mm 2 mps 732 mmHg 91%
    01:00 +8°C° 1.1 mm 2 mps 732 mmHg 91%
    02:00 +8°C° 1.7 mm 3 mps 732 mmHg 91%
    03:00 +8°C° 1.7 mm 3 mps 732 mmHg 91%
    04:00 +8°C° 1.7 mm 3 mps 732 mmHg 91%
    05:00 +7°C° 0.5 mm 3 mps 732 mmHg 89%
    06:00 +6°C° 0.5 mm 4 mps 732 mmHg 87%
    07:00 +5°C° 0.5 mm 4 mps 732 mmHg 85%
    08:00 +7°C° 0 mm 3 mps 733 mmHg 82%
    09:00 +8°C° 0 mm 3 mps 734 mmHg 79%
    10:00 +9°C° 0 mm 3 mps 734 mmHg 76%
    11:00 +9°C° 0 mm 3 mps 734 mmHg 73%
    12:00 +10°C° 0 mm 3 mps 734 mmHg 70%
    13:00 +10°C° 0 mm 3 mps 735 mmHg 67%
    14:00 +9°C° 0 mm 3 mps 735 mmHg 69%
    15:00 +8°C° 0 mm 3 mps 735 mmHg 72%
    16:00 +7°C° 0 mm 2 mps 735 mmHg 75%
    17:00 +5°C° 0 mm 3 mps 736 mmHg 76%
    18:00 +4°C° 0 mm 3 mps 736 mmHg 78%
    19:00 +3°C° 0 mm 3 mps 737 mmHg 79%
    20:00 +3°C° 0 mm 3 mps 737 mmHg 79%
    21:00 +3°C° 0 mm 3 mps 737 mmHg 79%
    22:00 +2°C° 0 mm 3 mps 738 mmHg 78%
    23:00 +2°C° 0 mm 3 mps 738 mmHg 78%

    Tomorrow, 11 December, Tuesday

    Time Temperature Precipitation Wind Pressure Humidity
    00:00 +1°C° 0 mm 4 mps 738 mmHg 77%
    01:00 0°C° 0 mm 4 mps 738 mmHg 77%
    02:00 +1°C° 0 mm 3 mps 738 mmHg 76%
    03:00 +1°C° 0 mm 3 mps 738 mmHg 75%
    04:00 0°C° 0 mm 3 mps 738 mmHg 74%
    05:00 0°C° 0 mm 3 mps 738 mmHg 73%
    06:00 0°C° 0 mm 3 mps 739 mmHg 71%
    07:00 0°C° 0 mm 3 mps 739 mmHg 70%
    08:00 +1°C° 0 mm 3 mps 739 mmHg 65%
    09:00 +3°C° 0 mm 3 mps 739 mmHg 60%
    10:00 +4°C° 0 mm 3 mps 740 mmHg 55%
    11:00 +4°C° 0 mm 3 mps 739 mmHg 53%
    12:00 +6°C° 0 mm 2 mps 739 mmHg 51%
    13:00 +6°C° 0 mm 2 mps 739 mmHg 48%
    14:00 +6°C° 0 mm 2 mps 739 mmHg 52%
    15:00 +5°C° 0 mm 2 mps 739 mmHg 56%
    16:00 +4°C° 0 mm 2 mps 739 mmHg 59%
    17:00 +4°C° 0 mm 2 mps 740 mmHg 61%
    18:00 +3°C° 0 mm 2 mps 740 mmHg 63%
    19:00 +3°C° 0 mm 2 mps 740 mmHg 64%
    20:00 +3°C° 0 mm 2 mps 740 mmHg 65%
    21:00 +3°C° 0 mm 2 mps 741 mmHg 65%
    22:00 +2°C° 0 mm 2 mps 741 mmHg 66%
    23:00 +2°C° 0 mm 2 mps 741 mmHg 66%

    Day after tomorrow, 12 December, Wednesday

    Time Temperature Precipitation Wind Pressure Humidity
    00:00 +1°C° 0 mm 2 mps 741 mmHg 66%
    01:00 +1°C° 0 mm 2 mps 741 mmHg 67%
    02:00 +1°C° 0 mm 2 mps 741 mmHg 66%
    03:00 -1°C° 0 mm 2 mps 741 mmHg 66%
    04:00 -1°C° 0 mm 2 mps 742 mmHg 65%
    05:00 -1°C° 0 mm 2 mps 742 mmHg 64%
    06:00 -1°C° 0 mm 2 mps 742 mmHg 64%
    07:00 -1°C° 0 mm 2 mps 742 mmHg 63%
    08:00 +2°C° 0 mm 2 mps 743 mmHg 57%
    09:00 +4°C° 0 mm 1 mps 743 mmHg 52%
    10:00 +6°C° 0 mm 1 mps 743 mmHg 47%
    11:00 +6°C° 0 mm 1 mps 743 mmHg 46%
    12:00 +7°C° 0 mm 1 mps 742 mmHg 44%
    13:00 +7°C° 0 mm 1 mps 742 mmHg 42%
    14:00 +6°C° 0 mm 1 mps 742 mmHg 47%
    15:00 +5°C° 0 mm 1 mps 742 mmHg 51%
    16:00 +4°C° 0 mm 1 mps 742 mmHg 55%
    17:00 +3°C° 0 mm 1 mps 742 mmHg 56%
    18:00 +3°C° 0 mm 1 mps 742 mmHg 57%
    19:00 +2°C° 0 mm 2 mps 743 mmHg 58%
    20:00 +1°C° 0 mm 2 mps 743 mmHg 57%
    21:00 +1°C° 0 mm 2 mps 743 mmHg 56%
    22:00 +1°C° 0 mm 2 mps 743 mmHg 55%
    23:00 +2°C° 0 mm 2 mps 742 mmHg 54%

    13 December, Thursday

    Time Temperature Precipitation Wind Pressure Humidity
    00:00 +2°C° 0 mm 2 mps 742 mmHg 53%
    01:00 +2°C° 0 mm 2 mps 742 mmHg 51%
    02:00 +3°C° 0 mm 2 mps 742 mmHg 51%
    03:00 +3°C° 0 mm 2 mps 742 mmHg 50%
    04:00 +3°C° 0 mm 2 mps 742 mmHg 49%
    05:00 +3°C° 0 mm 2 mps 742 mmHg 50%
    06:00 +3°C° 0 mm 2 mps 742 mmHg 51%
    07:00 +3°C° 0 mm 2 mps 741 mmHg 52%
    08:00 +4°C° 0 mm 2 mps 741 mmHg 51%
    09:00 +5°C° 0 mm 2 mps 741 mmHg 50%
    10:00 +5°C° 0 mm 3 mps 741 mmHg 49%
    11:00 +5°C° 0.1 mm 3 mps 740 mmHg 53%
    12:00 +5°C° 0.1 mm 3 mps 740 mmHg 57%
    13:00 +6°C° 0.1 mm 2 mps 739 mmHg 60%
    14:00 +6°C° 0.4 mm 2 mps 739 mmHg 67%
    15:00 +6°C° 0.4 mm 2 mps 739 mmHg 73%
    16:00 +5°C° 0.4 mm 2 mps 739 mmHg 80%
    17:00 +5°C° 0.7 mm 2 mps 739 mmHg 82%
    18:00 +5°C° 0.7 mm 2 mps 739 mmHg 84%
    19:00 +5°C° 0.7 mm 2 mps 739 mmHg 86%
    20:00 +5°C° 0.4 mm 2 mps 739 mmHg 87%
    21:00 +5°C° 0.4 mm 2 mps 739 mmHg 88%
    22:00 +5°C° 0.4 mm 2 mps 739 mmHg 89%
    23:00 +6°C° 0.4 mm 2 mps 738 mmHg 90%

    14 December, Friday

    Time Temperature Precipitation Wind Pressure Humidity
    00:00 +6°C° 0.4 mm 2 mps 738 mmHg 91%
    01:00 +6°C° 0.4 mm 2 mps 737 mmHg 92%
    02:00 +6°C° 0.8 mm 2 mps 737 mmHg 92%
    03:00 +6°C° 0.8 mm 2 mps 737 mmHg 92%
    04:00 +6°C° 0.8 mm 2 mps 736 mmHg 92%
    05:00 +6°C° 1.5 mm 2 mps 736 mmHg 92%
    06:00 +5°C° 1.5 mm 3 mps 736 mmHg 92%
    07:00 +5°C° 1.5 mm 3 mps 735 mmHg 92%
    08:00 +5°C° 2.4 mm 3 mps 735 mmHg 93%
    09:00 +5°C° 2.4 mm 3 mps 735 mmHg 93%
    10:00 +5°C° 2.4 mm 3 mps 735 mmHg 93%
    11:00 +7°C° 2.6 mm 3 mps 734 mmHg 93%
    12:00 +7°C° 2.6 mm 3 mps 734 mmHg 93%
    13:00 +7°C° 2.6 mm 3 mps 733 mmHg 93%
    14:00 +5°C° 1.4 mm 3 mps 733 mmHg 93%
    15:00 +5°C° 1.4 mm 3 mps 733 mmHg 92%
    16:00 +5°C° 1.4 mm 3 mps 733 mmHg 91%
    17:00 +5°C° 0.6 mm 3 mps 733 mmHg 90%
    18:00 +4°C° 0.6 mm 3 mps 734 mmHg 88%
    19:00 +4°C° 0.6 mm 4 mps 734 mmHg 87%
    20:00 +4°C° 0.2 mm 4 mps 734 mmHg 87%
    21:00 +3°C° 0.2 mm 4 mps 735 mmHg 87%
    22:00 +3°C° 0.2 mm 4 mps 735 mmHg 86%
    23:00 +1°C° 0 mm 4 mps 735 mmHg 86%

    15 December, Saturday

    Time Temperature Precipitation Wind Pressure Humidity
    00:00 +2°C° 0 mm 3 mps 736 mmHg 86%
    01:00 +1°C° 0 mm 3 mps 736 mmHg 86%
    02:00 +1°C° 0 mm 3 mps 736 mmHg 86%
    03:00 0°C° 0 mm 3 mps 736 mmHg 85%
    04:00 0°C° 0 mm 3 mps 737 mmHg 85%
    05:00 0°C° 0 mm 3 mps 737 mmHg 84%
    06:00 0°C° 0 mm 3 mps 737 mmHg 84%
    07:00 0°C° 0 mm 3 mps 738 mmHg 84%
    08:00 +1°C° 0 mm 3 mps 738 mmHg 82%
    09:00 +2°C° 0 mm 3 mps 739 mmHg 80%
    10:00 +4°C° 0 mm 3 mps 739 mmHg 78%
    11:00 +4°C° 0 mm 3 mps 739 mmHg 77%
    12:00 +5°C° 0 mm 3 mps 739 mmHg 76%
    13:00 +7°C° 0 mm 2 mps 739 mmHg 76%
    14:00 +6°C° 0 mm 2 mps 739 mmHg 78%
    15:00 +5°C° 0 mm 2 mps 740 mmHg 79%
    16:00 +4°C° 0 mm 2 mps 740 mmHg 81%
    17:00 +3°C° 0 mm 2 mps 741 mmHg 80%
    18:00 +1°C° 0 mm 3 mps 741 mmHg 80%
    19:00 0°C° 0 mm 3 mps 742 mmHg 79%
    20:00 0°C° 0 mm 3 mps 742 mmHg 77%
    21:00 0°C° 0 mm 3 mps 743 mmHg 76%
    22:00 0°C° 0 mm 3 mps 743 mmHg 75%
    23:00 0°C° 0 mm 3 mps 743 mmHg 75%
    Show more